COSMOS 2491 DEB, 57550

Orbit data source: Space-Track

COSMOS 2491 DEB, 57550 is space debris in LEO originally from a launch on Wed, 25 Dec 2013 UTC launched from the Plesetsk Missile And Space Complex (PKMTR). Debris objects in space refer to the collection of defunct objects orbiting the Earth. Examples of debris include non-operational satellites, rocket bodies, and fragments generated from explosions, collisions, or faulty payload assembly.

Loading next visibility...
COSMOS 2491 DEB details
Identifier
57550, 2013-076AM
Orbit
LEO
Last TLE update2 days ago
Origin
Flag of CISTsNIIKhM (CIS)
ManufacturerTsNIIKhM
MissionSpacecraft
Bus & MotorUnknown
MassUnknown
Launch date (UTC)
2013-12-25 (11 years ago)
Launch vehicleUnknown
Launch site
Plesetsk Missile And Space Complex (PKMTR)
Object type
Payload
Rocket body
Debris
Shape & HBRUnknown
Radar Cross SectionSmall (<0.1 m²)

Expand to show TLE details & history

TLE from 2 days ago
0 COSMOS 2491 DEB
1 57550U 13076AM  24359.52755182  .00006774  00000-0  31006-1 0  9992
2 57550  82.4479  94.9915 0198461 253.7790 104.1389 12.71139400 75407
Epoch: 2024-12-24T12:39Z
Definitive object data (Epoch: 2024-12-24T12:39:40.477Z)
Latitude-0.00002°
Longitude171.53847°
Altitude1,420.497 km
Speed7.132 km/s
True Right ascension06h 19m 57s
True Declination0° 00' 00"
Sunlit
Object was in full shadow at TLE epoch
Visualization TLE readout
Latitude-30.45072°
Longitude165.84778°
Altitude1,358.871 km
Speed7.192 km/s
Apparent Right ascension02h 49m 27s
Apparent Declination-57° 47' 23"
Sunlit
Object is in full shadow
Visualization observer readout
Local Sidereal Time09:11:16
Azimuth220.721° SW
Elevation-35.575°
Doppler factor1
Orbital elements
Apogee altitude1,528.475 km
Perigee altitude1,220.752 km
Semi-major axis7,752.751 km
Eccentricity0.0198461
Inclination82.4479°
RAAN94.9915°
Arg. of periapsis253.779°
True anomaly106.33038°
Mean anomaly104.1389°
Eccentric anomaly105.23603°
Mean motion3.1795 °/min
BSTAR0.031006
Orbital period113.23 mins
Loading maneuver chart data...
Loading historical data...
Loading historical data...
Loading historical data...
Loading historical data...
Loading historical data...
Loading historical data...
Loading historical data...

COSMOS 2491 DEB Visibility forecast

Observer location: undefined°, undefined

Span
Click to sort rows by Start time (UTC) header in descending order
Start Az.
Max El. time (UTC)
Max El. Az.
Max El.
End time (UTC)
End Az.
9 mins2024-12-26 16:18:10.872Z27.236° NE2024-12-26 16:22:10.872Z56.226° ENE15.66°2024-12-26 16:27:10.872Z94.284° ESE
15 mins2024-12-26 18:11:10.872Z354.598° N2024-12-26 18:18:10.872Z53.906° ENE44.643°2024-12-26 18:26:10.872Z170.164° S
9 mins2024-12-26 20:07:10.872Z315.596° NNW2024-12-26 20:11:10.872Z284.447° WNW18.217°2024-12-26 20:16:10.872Z244.599° WSW
6 mins2024-12-27 05:04:10.872Z94.185° ESE2024-12-27 05:07:10.872Z72.647° E13.671°2024-12-27 05:10:10.872Z51.793° ENE
16 mins2024-12-27 06:52:10.872Z176.626° S2024-12-27 06:59:10.872Z114.051° SE44.065°2024-12-27 07:08:10.872Z11.022° NNE
12 mins2024-12-27 08:49:10.872Z250.391° W2024-12-27 08:54:10.872Z289.865° WNW22.069°2024-12-27 09:01:10.872Z343.431° N
|